[Date Prev][Date Next][Thread Prev][Thread Next] - [Date Index][Thread Index][Author Index]

2 Line ISS Keps 8-30



ISS
1 25544U 98067A   01242.02068758  .00031865  00000-0  42947-3 0  3991
2 25544  51.6392  76.8971 0008375  50.8458  47.8321 15.57492301158601


----
Via the sarex mailing list at AMSAT.ORG courtesy of AMSAT-NA.
To unsubscribe, send "unsubscribe sarex" to Majordomo@amsat.org



AMSAT Top AMSAT Home